Location: Camp at the Woods
(43.2055°N, 93.0905°W)
Time: 09:04:23
(UTC+00:00)

BlueWalker 3 - Pass Details

Date: 18 April 2024
Orbit: 482 x 494 km, 53.2° (Epoch: 22 May)

Event Time Altitude Azimuth Distance (km) Brightness Sun altitude
Rises 04:54:28 0° 284° (WNW) 2,579 6.0 -33.0°
Reaches altitude 10° 04:57:06 10° 302° (WNW) 1,699 5.2 -33.2°
Enters shadow 04:57:16 11° 304° (WNW) 1,654 5.1 -33.2°
